User: anonymous   Login
Location: Unspecified
(0.0000°N, 0.0000°E)
Time: 05:43:09
(UTC+00:00)
Language:

STARLINK-32324 - Orbit

View from above orbital plane
View from above orbital plane
View from above satellite
View from above satellite

Ground track
Ground track

The orbit is defined by the following mean orbital elements,

1 61863U          26145.50903128 +.00000000 +00000-0 +26244-4 0 00005
2 61863  43.0027 164.3741 0001435 274.0884  85.9804 15.27577814    05
Epoch (UTC): 25 May 2026 12:13:00
Eccentricity: 0.0001435
inclination: 43.0027°
perigee height: 482 km
apogee height: 484 km
right ascension of ascending node: 164.3741°
argument of perigee: 274.0884°
revolutions per day: 15.27577814
mean anomaly at epoch: 85.9804°

The dashed part of the orbit path shows where the satellite is in the earth's shadow,  

DLR